Torna al catalogo

ONEWEB-0290

AttivoComunicazioniPO
NORAD 49080·PAYLOAD·🇬🇧 United Kingdom

Lanciato Aug 21, 2021 da Baikonur Cosmodrome

Loading…

Prossimi Passaggi (prossime 24 ore)

TLE

AggiornatoSource: CelesTrak SupGP

Epoca: Sep 14, 2026, 21:11 UTC

1 49080C 21075F   26257.88278194 -.00001244  00000+0 -32073-2 0  2571
2 49080  87.9210 348.0492 0001424  93.9044  18.5697 13.17652401    17

Traccia ONEWEB-0290 in tempo reale con AllMySat

Download on the App Store